Weather History for Mineral Point, WI

Change the Weather History Date:

Sunday, February 17, 2013

  Actual Average (KLNR) Record (KLNR)
Temperature  
Mean Temperature 19 °F -  
Max Temperature 30 °F 33 °F 52 °F (2011)
Min Temperature 8 °F 17 °F -9 °F (2006)
Degree Days  
Heating Degree Days 46    
Moisture  
Dew Point 11 °F    
Average Humidity 64    
Maximum Humidity 74    
Minimum Humidity 54    
Precipitation  
Precipitation 0.00 in - - ()
Sea Level Pressure  
Sea Level Pressure 30.02 in    
Wind  
Wind Speed 7 mph (SE)    
Max Wind Speed 20 mph    
Max Gust Speed 28 mph    
Visibility 10 miles    
Events Snow    
Averages and records for this station are not official NWS values.
T = Trace of Precipitation, MM = Missing Value Source: NWS Daily Summary

Daily Weather History Graph

Daily Weather History Graph

Search for Another Location

Airport:

Trip Planner

Search our weather history database for the weather conditions in past years. The results will help you decide how hot, cold, wet, or windy it might be!

Date:

Astronomy

Feb. 17, 2013 Rise Set
Actual Time 6:54 AM CST 5:35 PM CST
Civil Twilight 6:26 AM CST 6:04 PM CST
Nautical Twilight 5:53 AM CST 6:37 PM CST
Astronomical Twilight 5:20 AM CST 7:10 PM CST
Moon 10:36 AM CST (2/17) 12:42 AM CST (2/17)
Length of Visible Light 11h 38m
Length of Day
10h 40m
Waxing Crescent, 49% of the Moon is Illuminated
Feb 17
Waxing Crescent
Feb 17
First Quarter
Feb 25
Full
Mar 4
Last Quarter
Mar 11
New

Hourly Weather History & Observations

Time (CST) Temp. Windchill Dew Point Humidity Pressure Visibility Wind Dir Wind Speed Gust Speed Precip Events Conditions
12:15 AM 12.2 °F - -0.4 °F 57% 30.12 in 10.0 mi Calm Calm - N/A   Clear
12:35 AM 10.4 °F 4.0 °F -0.4 °F 62% 30.12 in 10.0 mi ESE 3.5 mph - N/A   Clear
12:55 AM 12.2 °F - -0.4 °F 57% 30.13 in 10.0 mi Calm Calm - N/A   Clear
1:15 AM 12.2 °F - -0.4 °F 57% 30.13 in 10.0 mi Calm Calm - N/A   Clear
1:35 AM 10.4 °F - -0.4 °F 62% 30.13 in 10.0 mi Calm Calm - N/A   Clear
1:55 AM 10.4 °F - -0.4 °F 62% 30.12 in 10.0 mi Calm Calm - N/A   Clear
2:15 AM 10.4 °F - -0.4 °F 62% 30.12 in 10.0 mi Calm Calm - N/A   Clear
2:35 AM 10.4 °F - -0.4 °F 62% 30.12 in 10.0 mi Calm Calm - N/A   Clear
2:55 AM 10.4 °F - -0.4 °F 62% 30.12 in 10.0 mi Calm Calm - N/A   Clear
3:15 AM 10.4 °F - -0.4 °F 62% 30.12 in 10.0 mi Calm Calm - N/A   Clear
3:35 AM 10.4 °F 4.0 °F -0.4 °F 62% 30.12 in 10.0 mi East 3.5 mph - N/A   Clear
4:55 AM 10.4 °F 4.0 °F -0.4 °F 62% 30.12 in 10.0 mi SE 3.5 mph - N/A   Clear
5:15 AM 8.6 °F 0.1 °F -0.4 °F 67% 30.12 in 10.0 mi SE 4.6 mph - N/A   Clear
5:55 AM 8.6 °F 2.0 °F -0.4 °F 67% 30.13 in 10.0 mi SSE 3.5 mph - N/A   Clear
6:15 AM 8.6 °F 0.1 °F -0.4 °F 67% 30.12 in 10.0 mi SE 4.6 mph - N/A   Clear
6:55 AM 8.6 °F 0.1 °F -0.4 °F 67% 30.12 in 10.0 mi SE 4.6 mph - N/A   Clear
7:15 AM 8.6 °F 0.1 °F -0.4 °F 67% 30.12 in 10.0 mi SE 4.6 mph - N/A   Clear
7:35 AM 8.6 °F 0.1 °F 1.4 °F 73% 30.12 in 10.0 mi SE 4.6 mph - N/A   Clear
7:55 AM 10.4 °F 0.8 °F 1.4 °F 67% 30.12 in 10.0 mi SE 5.8 mph - N/A   Clear
8:15 AM 12.2 °F 4.3 °F 3.2 °F 67% 30.12 in 10.0 mi SE 4.6 mph - N/A   Clear
8:35 AM 14.0 °F 3.9 °F 5.0 °F 67% 30.12 in 10.0 mi SSE 6.9 mph - N/A   Clear
8:55 AM 15.8 °F 4.2 °F 5.0 °F 62% 30.11 in 10.0 mi SSE 9.2 mph - N/A   Clear
9:15 AM 17.6 °F 5.7 °F 5.0 °F 58% 30.11 in 10.0 mi SSE 10.4 mph - N/A   Clear
9:35 AM 17.6 °F 5.7 °F 5.0 °F 58% 30.11 in 10.0 mi SSE 10.4 mph - N/A   Clear
9:55 AM 17.6 °F 6.4 °F 6.8 °F 63% 30.11 in 10.0 mi SSE 9.2 mph - N/A   Clear
10:15 AM 19.4 °F 7.2 °F 8.6 °F 63% 30.11 in 10.0 mi SSE 11.5 mph - N/A   Clear
10:35 AM 21.2 °F 10.9 °F 8.6 °F 58% 30.11 in 10.0 mi SSE 9.2 mph - N/A   Clear
10:55 AM 21.2 °F 10.9 °F 10.4 °F 63% 30.12 in 10.0 mi SSE 9.2 mph - N/A   Clear
11:15 AM 23.0 °F 12.4 °F 10.4 °F 59% 30.11 in 10.0 mi SSE 10.4 mph - N/A   Clear
11:55 AM 24.8 °F 14.0 °F 10.4 °F 54% 30.10 in 10.0 mi SSE 11.5 mph - N/A   Clear
12:15 PM 24.8 °F 14.0 °F 12.2 °F 59% 30.09 in 10.0 mi SSE 11.5 mph - N/A   Clear
12:35 PM 26.6 °F 16.2 °F 12.2 °F 55% 30.07 in 10.0 mi SE 11.5 mph - N/A   Clear
12:55 PM 26.6 °F 15.7 °F 14.0 °F 59% 30.06 in 7.0 mi SE 12.7 mph - N/A   Clear
1:15 PM 28.4 °F 18.5 °F 14.0 °F 55% 30.04 in 10.0 mi SE 11.5 mph - N/A   Clear
1:35 PM 28.4 °F 19.1 °F 14.0 °F 55% 30.04 in 10.0 mi SE 10.4 mph - N/A   Clear
1:55 PM 28.4 °F 17.5 °F 15.8 °F 59% 30.03 in 10.0 mi SE 13.8 mph 17.3 mph N/A   Clear
2:15 PM 28.4 °F 17.0 °F 15.8 °F 59% 30.02 in 7.0 mi SSE 15.0 mph - N/A   Clear
2:35 PM 28.4 °F 17.5 °F 15.8 °F 59% 30.01 in 10.0 mi SE 13.8 mph - N/A   Clear
2:55 PM 28.4 °F 18.0 °F 17.6 °F 64% 30.00 in 10.0 mi SE 12.7 mph 18.4 mph N/A   Clear
3:15 PM 28.4 °F 18.0 °F 17.6 °F 64% 29.99 in 10.0 mi SE 12.7 mph - N/A   Clear
3:35 PM 30.2 °F 20.8 °F 17.6 °F 60% 29.99 in 10.0 mi SE 11.5 mph - N/A   Clear
3:55 PM 30.2 °F 20.8 °F 17.6 °F 60% 29.98 in 10.0 mi SSE 11.5 mph - N/A Snow Light Snow
4:15 PM 30.2 °F 20.2 °F 17.6 °F 60% 29.97 in 10.0 mi SE 12.7 mph - N/A   Clear
4:35 PM 30.2 °F 20.2 °F 17.6 °F 60% 29.97 in 10.0 mi SE 12.7 mph 17.3 mph N/A   Clear
4:55 PM 28.4 °F 17.0 °F 17.6 °F 64% 29.95 in 10.0 mi SE 15.0 mph 21.9 mph N/A   Clear
5:15 PM 28.4 °F 18.5 °F 17.6 °F 64% 29.95 in 10.0 mi SE 11.5 mph - N/A   Clear
5:35 PM 28.4 °F 18.5 °F 17.6 °F 64% 29.94 in 10.0 mi SE 11.5 mph - N/A   Clear
5:55 PM 28.4 °F 18.0 °F 17.6 °F 64% 29.94 in 10.0 mi SE 12.7 mph - N/A   Clear
6:15 PM 28.4 °F 17.5 °F 19.4 °F 69% 29.94 in 10.0 mi SE 13.8 mph - N/A   Clear
6:35 PM 28.4 °F 17.5 °F 19.4 °F 69% 29.93 in 10.0 mi SE 13.8 mph - N/A   Clear
6:55 PM 28.4 °F 17.0 °F 19.4 °F 69% 29.92 in 10.0 mi SE 15.0 mph - N/A   Clear
7:15 PM 28.4 °F 18.0 °F 19.4 °F 69% 29.92 in 10.0 mi SE 12.7 mph - N/A   Clear
7:35 PM 28.4 °F 18.0 °F 19.4 °F 69% 29.92 in 10.0 mi SE 12.7 mph - N/A   Clear
7:55 PM 28.4 °F 17.5 °F 19.4 °F 69% 29.91 in 10.0 mi SE 13.8 mph - N/A   Clear
8:15 PM 28.4 °F 17.5 °F 19.4 °F 69% 29.90 in 10.0 mi SE 13.8 mph - N/A   Clear
8:35 PM 28.4 °F 18.0 °F 19.4 °F 69% 29.91 in 10.0 mi SE 12.7 mph - N/A   Clear
8:55 PM 28.4 °F 16.6 °F 19.4 °F 69% 29.88 in 10.0 mi SE 16.1 mph - N/A   Clear
9:15 PM 28.4 °F 16.6 °F 21.2 °F 74% 29.88 in 10.0 mi SE 16.1 mph 23.0 mph N/A   Clear
9:35 PM 28.4 °F 17.0 °F 21.2 °F 74% 29.88 in 10.0 mi SE 15.0 mph - N/A   Clear
9:55 PM 30.2 °F 18.5 °F 21.2 °F 69% 29.87 in 10.0 mi SE 17.3 mph - N/A   Clear
10:15 PM 30.2 °F 18.5 °F 21.2 °F 69% 29.85 in 10.0 mi SE 17.3 mph 26.5 mph N/A   Clear
10:35 PM 30.2 °F 18.1 °F 21.2 °F 69% 29.84 in 10.0 mi SE 18.4 mph 24.2 mph N/A   Clear
10:55 PM 30.2 °F 17.8 °F 21.2 °F 69% 29.83 in 10.0 mi SSE 19.6 mph 27.6 mph N/A   Clear
11:15 PM 30.2 °F 17.8 °F 21.2 °F 69% 29.82 in 10.0 mi SSE 19.6 mph 25.3 mph N/A   Clear
11:35 PM 30.2 °F 17.8 °F 21.2 °F 69% 29.82 in 10.0 mi SE 19.6 mph 24.2 mph N/A   Clear
11:55 PM 30.2 °F 18.5 °F 21.2 °F 69% 29.82 in 10.0 mi SSE 17.3 mph 23.0 mph N/A   Clear